Weather History for Trenton, NJ

Change the Weather History Date:

Thursday, May 16, 2013

  Actual Average Record
Temperature  
Mean Temperature 68 °F 61 °F  
Max Temperature 80 °F 72 °F 88 °F (1951)
Min Temperature 56 °F 51 °F 41 °F (1987)
Degree Days  
Heating Degree Days 0 5  
Month to date heating degree days 116 114  
Since 1 July heating degree days 4890 5082  
Cooling Degree Days 3 1  
Month to date cooling degree days 9 16  
Year to date cooling degree days 23 24  
Growing Degree Days 18 (Base 50)    
Moisture  
Dew Point 57 °F    
Average Humidity 70    
Maximum Humidity 93    
Minimum Humidity 47    
Precipitation  
Precipitation 0.03 in 0.13 in 1.66 in (1940)
Month to date precipitation 1.98 1.79  
Year to date precipitation 11.46 14.94  
Sea Level Pressure  
Sea Level Pressure 29.76 in    
Wind  
Wind Speed 4 mph (WNW)    
Max Wind Speed 13 mph    
Max Gust Speed 17 mph    
Visibility 9 miles    
Events Rain    
T = Trace of Precipitation, MM = Missing Value Source: NWS Daily Summary

Daily Weather History Graph

Daily Weather History Graph

Search for Another Location

Airport:

Trip Planner

Search our weather history database for the weather conditions in past years. The results will help you decide how hot, cold, wet, or windy it might be!

Date:

Astronomy

May. 16, 2013 Rise Set
Actual Time 5:42 AM EDT 8:09 PM EDT
Civil Twilight 5:11 AM EDT 8:40 PM EDT
Nautical Twilight 4:32 AM EDT 9:19 PM EDT
Astronomical Twilight 3:50 AM EDT 10:02 PM EDT
Moon 11:13 AM EDT (5/16) 12:28 AM EDT (5/16)
Length of Visible Light 15h 29m
Length of Day
14h 27m
Waxing Crescent, 35% of the Moon is Illuminated
May 16
Waxing Crescent
May 18
First Quarter
May 25
Full
May 31
Last Quarter
Jun 8
New

Hourly Weather History & Observations

Time (EDT) Temp. Heat Index Dew Point Humidity Pressure Visibility Wind Dir Wind Speed Gust Speed Precip Events Conditions
12:53 AM 62.1 °F - 55.9 °F 80% 29.71 in 10.0 mi Calm Calm - N/A   Clear
1:53 AM 61.0 °F - 55.9 °F 83% 29.70 in 9.0 mi Calm Calm - N/A   Clear
2:53 AM 59.0 °F - 55.0 °F 87% 29.70 in 9.0 mi NNW 4.6 mph - N/A   Clear
3:53 AM 59.0 °F - 55.0 °F 87% 29.70 in 8.0 mi Calm Calm - N/A   Clear
4:53 AM 57.9 °F - 55.0 °F 90% 29.71 in 7.0 mi NNW 3.5 mph - N/A   Clear
5:53 AM 57.9 °F - 54.0 °F 87% 29.73 in 5.0 mi North 4.6 mph - N/A   Partly Cloudy
6:53 AM 61.0 °F - 55.9 °F 83% 29.76 in 5.0 mi Calm Calm - N/A   Haze
7:53 AM 63.0 °F - 57.0 °F 81% 29.78 in 6.0 mi Calm Calm - N/A   Haze
8:53 AM 63.0 °F - 57.0 °F 81% 29.81 in 5.0 mi North 4.6 mph - 0.00 in Rain Light Rain
9:53 AM 63.0 °F - 59.0 °F 87% 29.80 in 7.0 mi West 3.5 mph - 0.03 in   Scattered Clouds
10:53 AM 66.9 °F - 57.0 °F 70% 29.80 in 10.0 mi SW 4.6 mph - N/A   Clear
11:53 AM 71.1 °F - 57.0 °F 61% 29.79 in 10.0 mi West 4.6 mph - N/A   Clear
12:53 PM 73.9 °F - 59.0 °F 59% 29.78 in 10.0 mi WSW 6.9 mph - N/A   Scattered Clouds
1:53 PM 75.0 °F - 59.0 °F 57% 29.77 in 10.0 mi SW 5.8 mph - N/A   Scattered Clouds
2:53 PM 77.0 °F - 59.0 °F 54% 29.76 in 10.0 mi Variable 6.9 mph - N/A   Scattered Clouds
3:53 PM 78.1 °F - 60.1 °F 54% 29.74 in 10.0 mi West 5.8 mph - N/A   Scattered Clouds
4:53 PM 79.0 °F - 59.0 °F 50% 29.73 in 9.0 mi West 6.9 mph - N/A   Clear
5:53 PM 80.1 °F 80.9 °F 60.1 °F 50% 29.72 in 10.0 mi West 8.1 mph - N/A   Clear
6:53 PM 79.0 °F - 57.9 °F 48% 29.73 in 10.0 mi West 6.9 mph - N/A   Scattered Clouds
7:53 PM 77.0 °F - 55.9 °F 48% 29.75 in 10.0 mi West 4.6 mph - N/A   Clear
8:53 PM 73.9 °F - 57.0 °F 55% 29.77 in 10.0 mi WSW 3.5 mph - N/A   Clear
9:53 PM 72.0 °F - 55.9 °F 57% 29.79 in 10.0 mi Calm Calm - N/A   Partly Cloudy
10:53 PM 69.1 °F - 55.0 °F 61% 29.81 in 10.0 mi North 5.8 mph - N/A   Clear
11:53 PM 66.9 °F - 48.9 °F 52% 29.83 in 10.0 mi NNW 4.6 mph - N/A   Clear